Location: Adamstown South Public School
(32.9318°S, 151.7012°E)
Time: 21:08:29
(UTC+00:00)

Cosmos 2369 Rocket - Pass Details

Date: 07 June 2020
Orbit: 830 x 851 km, 71.0° (Epoch: 05 July)

Event Time Altitude Azimuth Distance (km) Brightness Sun altitude
Rises 07:56:07 0° 190° (S) 3,446 5.3 -12.9°
Reaches altitude 10° 07:58:52 10° 180° (S) 2,505 4.5 -13.5°
Maximum altitude 08:03:59 32° 117° (ESE) 1,432 2.9 -14.5°
Drops below altitude 10° 08:09:03 10° 55° (NE) 2,480 4.3 -15.5°
Sets 08:11:44 0° 45° (NE) 3,407 5.1 -16.1°
